FW2617 Weather Reports


Display with metric or nautical units.
time (UTC)temp
F
wind
direction
speed
MPH
gust
MPH
rain 1hr
in
rain 24hr
in
rain mn
in
humidity
%
barometer
mb
20260503200002 82 183 5.0 12.0 0.00 0.00 0.00 38 1016.2
20260503195403 82 180 5.0 12.0 0.00 0.00 0.00 39 1016.3
20260503194504 82 189 5.0 13.0 0.00 0.00 0.00 37 1016.5
20260503193603 82 179 6.0 14.0 0.00 0.00 0.00 38 1016.6
20260503192703 81 180 5.0 12.0 0.00 0.00 0.00 37 1016.7
20260503191803 81 190 6.0 14.0 0.00 0.00 0.00 41 1017.1
20260503190924 80 180 6.0 13.0 0.00 0.00 0.00 42 1017.1
20260503190003 81 181 6.0 15.0 0.00 0.00 0.00 43 1017.3
20260503185402 80 171 7.0 15.0 0.00 0.00 0.00 42 1017.4
20260503184503 80 187 6.0 13.0 0.00 0.00 0.00 42 1017.5
20260503183603 80 181 5.0 12.0 0.00 0.00 0.00 42 1017.6
20260503182703 80 187 6.0 11.0 0.00 0.00 0.00 41 1017.7
20260503181803 80 232 4.0 13.0 0.00 0.00 0.00 41 1017.8
20260503180902 80 193 5.0 11.0 0.00 0.00 0.00 42 1018.1
20260503180003 80 194 5.0 11.0 0.00 0.00 0.00 44 1018.2
20260503175403 79 196 5.0 12.0 0.00 0.00 0.00 44 1018.3
20260503174503 79 199 5.0 12.0 0.00 0.00 0.00 44 1018.4
20260503173603 78 190 6.0 12.0 0.00 0.00 0.00 45 1018.6
20260503172702 78 215 4.0 9.0 0.00 0.00 0.00 47 1018.7
20260503171803 78 206 5.0 12.0 0.00 0.00 0.00 47 1018.9
20260503170924 77 201 5.0 10.0 0.00 0.00 0.00 49 1019.1
20260503150925 68 206 6.0 11.0 0.00 0.00 0.00 63 1019.7
20260503130904 57 211 2.0 6.0 0.00 0.00 0.00 82 1019.3
20260503080904 58 193 1.0 3.0 0.00 0.00 0.00 75 1017.9
20260503072704 58 217 1.0 3.0 0.00 0.00 0.00 72 1018.2
20260503071804 59 217 0.0 3.0 0.00 0.00 0.00 72 1018.2
20260503070903 59 216 0.0 2.0 0.00 0.00 0.00 71 1018.3
20260503054504 59 210 2.0 4.0 0.00 0.00 0.00 70 1018.4
20260503053604 60 202 1.0 5.0 0.00 0.00 0.00 70 1018.4
20260503052704 60 0 0.0 0.0 0.00 0.00 0.00 71 1018.3
20260503051804 60 0 0.0 0.0 0.00 0.00 0.00 70 1018.1
20260503050903 60 268 0.0 2.0 0.00 0.00 0.00 69 1018.2
20260503050004 60 0 0.0 0.0 0.00 0.00 0.00 69 1018.0
20260503045404 60 0 0.0 0.0 0.00 0.00 0.00 70 1018.1
20260503044504 61 0 0.0 0.0 0.00 0.00 0.00 69 1018.1
20260503043604 61 0 0.0 0.0 0.00 0.00 0.00 69 1018.0
20260503042704 62 0 0.0 0.0 0.00 0.00 0.00 67 1018.0
20260503041803 62 0 0.0 0.0 0.00 0.00 0.00 68 1018.0
20260503040904 62 0 0.0 0.0 0.00 0.00 0.00 68 1018.2
20260503040003 62 0 0.0 0.0 0.00 0.00 0.00 67 1018.1
20260503035404 63 0 0.0 0.0 0.00 0.00 0.00 66 1018.1
20260503034503 63 0 0.0 0.0 0.00 0.00 0.00 67 1018.0
20260503033604 63 0 0.0 0.0 0.00 0.00 0.00 65 1018.1
20260503032703 64 0 0.0 0.0 0.00 0.00 0.00 63 1018.1
20260503031804 64 0 0.0 0.0 0.00 0.00 0.00 64 1018.0
20260503030903 65 0 0.0 0.0 0.00 0.00 0.00 63 1018.0
20260503030004 65 0 0.0 0.0 0.00 0.00 0.00 61 1017.9
20260503025403 66 0 0.0 0.0 0.00 0.00 0.00 61 1017.8
20260503024504 66 0 0.0 0.0 0.00 0.00 0.00 60 1017.7
20260503023603 66 0 0.0 0.0 0.00 0.00 0.00 59 1017.7
20260503022703 67 0 0.0 0.0 0.00 0.00 0.00 57 1017.5
20260503021825 67 0 0.0 0.0 0.00 0.00 0.00 56 1017.5
20260503020903 68 0 0.0 0.0 0.00 0.00 0.00 55 1017.4
20260503020003 69 0 0.0 0.0 0.00 0.00 0.00 54 1017.3
20260503015404 69 268 1.0 3.0 0.00 0.00 0.00 54 1017.2
20260503014504 70 268 1.0 2.0 0.00 0.00 0.00 52 1017.2
20260503013604 70 268 1.0 2.0 0.00 0.00 0.00 50 1017.1
20260503012703 72 268 1.0 2.0 0.00 0.00 0.00 48 1017.1
20260503011824 73 268 0.0 2.0 0.00 0.00 0.00 47 1017.1
20260503010904 74 268 0.0 2.0 0.00 0.00 0.00 44 1017.1
20260503010003 75 268 0.0 1.0 0.00 0.00 0.00 41 1017.0
20260503005403 75 268 0.0 1.0 0.00 0.00 0.00 42 1017.0
20260503004524 76 268 0.0 1.0 0.00 0.00 0.00 39 1017.1
20260503003604 76 268 1.0 2.0 0.00 0.00 0.00 38 1017.0
20260503002703 76 268 1.0 2.0 0.00 0.00 0.00 38 1017.0
20260503001803 77 278 2.0 3.0 0.00 0.00 0.00 38 1017.0
20260503000904 77 306 2.0 3.0 0.00 0.00 0.00 38 1016.9
20260503000004 77 314 2.0 4.0 0.00 0.00 0.00 37 1017.0
20260502235425 78 313 1.0 3.0 0.00 0.00 0.00 36 1017.0
20260502234504 78 323 2.0 4.0 0.00 0.00 0.00 36 1017.0
20260502233603 78 348 2.0 4.0 0.00 0.00 0.00 36 1017.0
20260502232704 78 4 2.0 5.0 0.00 0.00 0.00 37 1017.0
20260502231803 78 13 3.0 5.0 0.00 0.00 0.00 36 1017.1
20260502230903 78 353 2.0 5.0 0.00 0.00 0.00 37 1017.1
20260502230004 78 357 3.0 5.0 0.00 0.00 0.00 37 1017.2
20260502225404 78 24 2.0 5.0 0.00 0.00 0.00 37 1017.1
20260502224504 77 294 1.0 2.0 0.00 0.00 0.00 36 1017.2
20260502223604 77 293 2.0 4.0 0.00 0.00 0.00 35 1017.2
20260502222725 78 323 2.0 4.0 0.00 0.00 0.00 35 1017.3
20260502221803 78 357 3.0 6.0 0.00 0.00 0.00 37 1017.3
20260502220903 79 324 3.0 7.0 0.00 0.00 0.00 37 1017.4
20260502220003 80 317 2.0 4.0 0.00 0.00 0.00 36 1017.4
20260502215404 80 22 2.0 5.0 0.00 0.00 0.00 40 1017.4
20260502214524 80 57 2.0 7.0 0.00 0.00 0.00 39 1017.5
20260502213603 80 54 2.0 7.0 0.00 0.00 0.00 39 1017.6
20260502212703 79 23 2.0 8.0 0.00 0.00 0.00 41 1017.7
20260502211804 79 13 4.0 8.0 0.00 0.00 0.00 40 1017.9
20260502210924 79 347 4.0 10.0 0.00 0.00 0.00 39 1017.9
20260502210003 80 358 3.0 8.0 0.00 0.00 0.00 40 1018.1
20260502205425 79 8 3.0 12.0 0.00 0.00 0.00 41 1018.2
20260502204504 79 4 4.0 9.0 0.00 0.00 0.00 41 1018.3
20260502203603 79 28 3.0 8.0 0.00 0.00 0.00 40 1018.4
20260502202725 79 47 3.0 8.0 0.00 0.00 0.00 39 1018.5
20260502201804 79 10 3.0 7.0 0.00 0.00 0.00 44 1018.5
20260502200903 78 6 4.0 8.0 0.00 0.00 0.00 41 1018.5